Lafayette, LA

12:54 PM CDT on April 19, 2018 (GMT -0500)
Lafayette Regional

Weather History for KLFT - November, 2014

Change the Weather History Date:

Thursday, November 6, 2014

  Actual Average Record
Temperature  
Mean Temperature 64 °F 64 °F  
Max Temperature 72 °F 75 °F 89 °F (2015)
Min Temperature 56 °F 54 °F 32 °F (1954)
Degree Days  
Heating Degree Days 1 4  
Month to date heating degree days 36 19  
Since 1 July heating degree days 41 55  
Growing Degree Days 14 (Base 50)    
Moisture  
Dew Point 60 °F    
Average Humidity 79    
Maximum Humidity 90    
Minimum Humidity 67    
Precipitation  
Precipitation 0.27 in 0.15 in 1.77 in (2015)
Month to date precipitation 0.41 0.95  
Year to date precipitation 54.26 51.52  
Snow  
Snow 0.00 in 0.00 in 0.00 in ()
Month to date snowfall 0.0 0.0  
Since 1 July snowfall 0.0 0.0  
Since 1 September snowfall 0.0 0.0  
Snow Depth 0.00 in    
Sea Level Pressure  
Sea Level Pressure 30.18 in    
Wind  
Wind Speed 6 mph (North)    
Max Wind Speed 15 mph    
Max Gust Speed 19 mph    
Visibility 8 miles    
Events Rain    
T = Trace of Precipitation, MM = Missing Value Source: NWS Daily Summary

Daily Weather History Graph

Daily Weather History Graph

Search for Another Location

Airport or City:

Astronomy

Nov. 06, 2014 Rise Set
Actual Time 6:26 AM CST 5:16 PM CST
Civil Twilight 6:01 AM CST 5:41 PM CST
Nautical Twilight 5:32 AM CST 6:10 PM CST
Astronomical Twilight 5:04 AM CST 6:38 PM CST
Moon 5:23 PM CST (11/6) 6:00 AM CST (11/6)
Length of Visible Light 11h 40m
Length of Day
10h 50m
Full, 100% of the Moon is Illuminated
Nov 6
Full
Nov 6
Full
Nov 14
Last Quarter
Nov 22
New
Nov 29
First Quarter

Hourly Weather History & Observations

Time (CST) Temp. Dew Point Humidity Pressure Visibility Wind Dir Wind Speed Gust Speed Precip Events Conditions
12:13 AM 68.0 °F - N/A% 30.16 in 4.0 mi Calm Calm - 0.02 in Rain Light Rain
12:20 AM 68.0 °F - N/A% 30.16 in 4.0 mi Calm Calm - 0.03 in Rain Light Rain
12:38 AM 68.0 °F - N/A% 30.16 in 4.0 mi Calm Calm - 0.05 in Rain Rain
12:53 AM 68.0 °F - N/A% 30.16 in 3.0 mi Calm Calm - 0.06 in Rain Light Rain
1:16 AM 68.0 °F - N/A% 30.15 in 4.0 mi North 5.8 mph - 0.02 in Rain Light Rain
1:53 AM 68.0 °F - N/A% 30.16 in 4.0 mi NNW 6.9 mph - 0.06 in Rain Light Rain
2:38 AM 68.0 °F - N/A% 30.16 in 5.0 mi Calm Calm - 0.07 in Rain Light Rain
2:53 AM 68.0 °F - N/A% 30.16 in 5.0 mi NNW 4.6 mph - 0.09 in Rain Rain
3:02 AM 68.0 °F - N/A% 30.15 in 6.0 mi NW 4.6 mph - 0.00 in Rain Light Rain
3:14 AM 68.0 °F - N/A% 30.15 in 8.0 mi NNW 5.8 mph - 0.01 in Rain Light Rain
3:53 AM 66.9 °F - N/A% 30.15 in 5.0 mi South 3.5 mph - 0.04 in Rain Light Rain
4:53 AM 66.9 °F - N/A% 30.16 in 5.0 mi Calm Calm - 0.02 in Rain Light Rain
5:53 AM 66.9 °F - N/A% 30.17 in 7.0 mi NNW 6.9 mph - 0.01 in Rain Light Rain
6:08 AM 66.9 °F - N/A% 30.18 in 9.0 mi NNW 5.8 mph - 0.00 in   Scattered Clouds
6:53 AM 66.9 °F - N/A% 30.17 in 7.0 mi Calm Calm - 0.00 in   Overcast
7:44 AM 68.0 °F - N/A% 30.20 in 10.0 mi North 4.6 mph - N/A   Overcast
7:53 AM 68.0 °F - N/A% 30.20 in 10.0 mi Calm Calm - N/A   Overcast
8:14 AM 68.0 °F - N/A% 30.20 in 10.0 mi Calm Calm - N/A   Scattered Clouds
8:53 AM 69.1 °F 66.9 °F 93% 30.22 in 10.0 mi North 6.9 mph - N/A   Partly Cloudy
9:23 AM 69.1 °F 66.0 °F 90% 30.22 in 10.0 mi North 6.9 mph - N/A   Overcast
9:32 AM 70.0 °F 66.9 °F 90% 30.22 in 10.0 mi North 6.9 mph - N/A   Overcast
9:44 AM 69.1 °F 66.9 °F 93% 30.22 in 10.0 mi North 9.2 mph - N/A   Overcast
9:53 AM 69.1 °F 66.0 °F 90% 30.21 in 10.0 mi NNE 8.1 mph - N/A   Overcast
10:13 AM 70.0 °F 66.0 °F 87% 30.21 in 10.0 mi North 5.8 mph - N/A   Overcast
10:32 AM 70.0 °F 66.0 °F 87% 30.22 in 10.0 mi NNW 8.1 mph - N/A   Overcast
10:53 AM 71.1 °F 66.9 °F 87% 30.21 in 10.0 mi North 8.1 mph - N/A   Overcast
11:53 AM 70.0 °F 64.0 °F 81% 30.19 in 10.0 mi North 11.5 mph - N/A   Overcast
12:15 PM 70.0 °F 64.0 °F 81% 30.18 in 10.0 mi North 11.5 mph - N/A   Overcast
12:29 PM 69.1 °F 63.0 °F 81% 30.18 in 10.0 mi North 10.4 mph - N/A   Overcast
12:53 PM 68.0 °F 62.6 °F 83% 30.18 in 10.0 mi North 11.5 mph - N/A   Overcast
1:53 PM 66.0 °F 60.1 °F 81% 30.19 in 10.0 mi North 15.0 mph - N/A   Overcast
2:24 PM 68.0 °F 60.1 °F 76% 30.16 in 10.0 mi NNE 10.4 mph - N/A   Overcast
2:53 PM 68.0 °F 60.1 °F 76% 30.15 in 10.0 mi NNE 6.9 mph - N/A   Partly Cloudy
3:53 PM 66.9 °F 55.9 °F 68% 30.17 in 10.0 mi North 13.8 mph - N/A   Partly Cloudy
4:53 PM 64.9 °F 54.0 °F 68% 30.16 in 10.0 mi North 4.6 mph - N/A   Clear
5:53 PM 63.0 °F 55.0 °F 75% 30.17 in 10.0 mi North 4.6 mph - N/A   Clear
6:53 PM 62.1 °F 55.0 °F 78% 30.17 in 10.0 mi North 5.8 mph - N/A   Clear
7:53 PM 61.0 °F 54.0 °F 78% 30.18 in 10.0 mi North 6.9 mph - N/A   Clear
8:53 PM 59.0 °F 54.0 °F 83% 30.19 in 10.0 mi North 4.6 mph - N/A   Clear
9:53 PM 59.0 °F 53.1 °F 81% 30.21 in 10.0 mi North 5.8 mph - N/A   Clear
10:53 PM 57.9 °F 53.1 °F 84% 30.20 in 10.0 mi North 5.8 mph - N/A   Clear
11:53 PM 55.9 °F 52.0 °F 87% 30.18 in 10.0 mi Variable 5.8 mph - N/A   Clear